Home   Weather   South Bend   Past weeks

Flag for USA Past Weather in South Bend, Indiana, USA — Yesterday and Last 2 Weeks

Now
77 °F

Scattered clouds.


Feels Like: 79 °F
Forecast: 61 / 79 °F
Wind: 16 mph from North

Location: Michiana Regional Airport

Current Time: Jul 27, 2017 at 8:54:21 pm

Latest Report: Jul 27, 2017 at 7:54 pm


Visibility: 10 mi

Pressure: 29.88 "Hg

Humidity: 74%

Dew Point: 68 °F

Location of South BendLocation

Past Weather in South Bend — Graph

°F

South Bend Temperature Yesterday

Maximum temperature yesterday: 82 °F (at 2:54 pm)
Minimum temperature yesterday: 64 °F (at 6:54 am)
Average temperature yesterday: 73 °F

High & Low Weather Summary for the Past Weeks

 TemperatureHumidityPressure
High87 °F (Jul 19, 2:54 pm)100% (Jul 13, 5:54 am)30.23 "Hg (Jul 13, 5:54 am)
Low54 °F (Jul 17, 4:54 am)43% (Jul 25, 11:54 am)29.74 "Hg (Jul 22, 6:54 am)
Average72 °F80%30.00 "Hg
* Reported Jul 12 6:54 pm — Jul 27 6:54 pm, South Bend. Weather by CustomWeather, © 2017

Note: Actual official high and low records may vary slightly from our data, if they occured in-between our weather recording intervals... More about our weather records

Advertising

South Bend Weather History for the Previous 24 Hours

Scroll right to see more
 ConditionsComfort  
Time TempWeatherWind HumidityBarometerVisibility
6:54 pm
Thu, Jul 27
80 °FSunny.18 mph71%29.87 "Hg10 mi
5:54 pm83 °FSunny.16 mph68%29.87 "Hg10 mi
4:54 pm83 °FScattered clouds.14 mph68%29.87 "Hg10 mi
3:54 pm83 °FMore clouds than sun.8 mph70%29.88 "Hg10 mi
2:54 pm84 °FBroken clouds.5 mph67%29.88 "Hg10 mi
1:54 pm80 °FMore clouds than sun.3 mph74%29.90 "Hg10 mi
12:54 pm79 °FMore clouds than sun.No wind79%29.91 "Hg10 mi
11:54 am76 °FMostly cloudy.No wind85%29.92 "Hg10 mi
11:38 am76 °FMore clouds than sun.5 mph85%29.94 "Hg10 mi
10:54 am76 °FMore clouds than sun.No wind85%29.91 "Hg10 mi
10:23 am75 °FOvercast.No wind88%29.93 "Hg10 mi
9:54 am75 °FMore clouds than sun.3 mph88%29.92 "Hg10 mi
9:13 am73 °FPartly sunny.3 mph94%29.93 "Hg10 mi
8:54 am73 °FBroken clouds.3 mph90%29.91 "Hg9 mi
7:54 am72 °FLow clouds.No wind91%29.92 "Hg10 mi
7:07 am71 °FMostly cloudy.3 mph93%29.94 "Hg10 mi
5:54 am73 °FMostly cloudy.7 mph84%29.91 "Hg10 mi
4:54 am73 °FPassing clouds.6 mph81%29.90 "Hg10 mi
3:54 am73 °FPassing clouds.6 mph81%29.91 "Hg10 mi
2:54 am74 °FClear.3 mph79%29.93 "Hg10 mi
1:54 am74 °FClear.5 mph82%29.95 "Hg10 mi
12:54 am74 °FClear.6 mph85%29.96 "Hg10 mi
11:54 pm
Wed, Jul 26
75 °FClear.8 mph82%29.98 "Hg10 mi
10:54 pm76 °FClear.6 mph80%29.99 "Hg10 mi
9:54 pm77 °FClear.6 mph71%29.99 "Hg10 mi
8:54 pm78 °FPassing clouds.6 mph71%30.00 "Hg10 mi
Weather by CustomWeather, © 2017

See weather overviewHow to use our weather pages